Weather History for College Park, MD

Change the Weather History Date:

Thursday, January 31, 2013

  Actual Average Record
Temperature  
Mean Temperature 50 °F -  
Max Temperature 66 °F 44 °F 66 °F (1974)
Min Temperature 33 °F 26 °F -3 °F (1965)
Degree Days  
Heating Degree Days 16    
Moisture  
Dew Point 28 °F    
Average Humidity 51    
Maximum Humidity 100    
Minimum Humidity 33    
Precipitation  
Precipitation 0.00 in - - ()
Sea Level Pressure  
Sea Level Pressure 29.62 in    
Wind  
Wind Speed 13 mph (West)    
Max Wind Speed 28 mph    
Max Gust Speed 38 mph    
Visibility 10 miles    
Events      
Averages and records for this station are not official NWS values.
T = Trace of Precipitation, MM = Missing Value Source: NWS Daily Summary

Daily Weather History Graph

Daily Weather History Graph

Search for Another Location

Airport:

Trip Planner

Search our weather history database for the weather conditions in past years. The results will help you decide how hot, cold, wet, or windy it might be!

Date:

Astronomy

Jan. 31, 2013 Rise Set
Actual Time 7:14 AM EST 5:28 PM EST
Civil Twilight 6:46 AM EST 5:56 PM EST
Nautical Twilight 6:14 AM EST 6:28 PM EST
Astronomical Twilight 5:43 AM EST 6:59 PM EST
Moon 10:24 PM EST (1/31) 9:16 AM EST (1/31)
Length of Visible Light 11h 09m
Length of Day
10h 13m
Waning Gibbous, 80% of the Moon is Illuminated
Jan 31
Waning Gibbous
Feb 3
Last Quarter
Feb 10
New
Feb 17
First Quarter
Feb 25
Full

Hourly Weather History & Observations

Time (EST) Temp. Windchill Dew Point Humidity Pressure Visibility Wind Dir Wind Speed Gust Speed Precip Events Conditions
12:05 AM 61.9 °F - 61.9 °F 100% 29.22 in 10.0 mi South 10.4 mph 16.1 mph N/A   Overcast
12:45 AM 65.5 °F - 64.8 °F 98% 29.20 in 1.8 mi South 15.0 mph 24.2 mph N/A   Overcast
1:10 AM 66.2 °F - 65.5 °F 98% 29.16 in 4.0 mi South 13.8 mph 23.0 mph N/A   Overcast
1:50 AM 64.2 °F - 62.2 °F 93% 29.21 in 10.0 mi WSW 9.2 mph 25.3 mph N/A   Overcast
2:10 AM 62.6 °F - 61.2 °F 95% 29.22 in 10.0 mi West 5.8 mph 19.6 mph N/A   Overcast
2:35 AM 61.7 °F - 59.5 °F 93% 29.22 in 10.0 mi SW 8.1 mph - N/A   Overcast
3:00 AM 61.7 °F - 55.8 °F 81% 29.20 in 10.0 mi SSW 6.9 mph 16.1 mph N/A   Overcast
3:20 AM 61.0 °F - 52.9 °F 75% 29.17 in 10.0 mi SSW 6.9 mph - N/A   Overcast
3:45 AM 61.2 °F - 51.3 °F 70% 29.20 in 10.0 mi SW 8.1 mph 20.7 mph N/A   Scattered Clouds
4:05 AM 60.8 °F - 52.0 °F 73% 29.21 in 10.0 mi SW 10.4 mph 19.6 mph N/A   Scattered Clouds
4:25 AM 58.1 °F - 47.3 °F 67% 29.26 in 10.0 mi West 17.3 mph 29.9 mph N/A   Overcast
4:45 AM 55.4 °F - 43.7 °F 65% 29.28 in 10.0 mi NW 27.6 mph 38.0 mph N/A   Overcast
5:10 AM 52.3 °F - 35.8 °F 53% 29.32 in 10.0 mi WNW 19.6 mph 31.1 mph N/A   Overcast
5:30 AM 51.3 °F - 34.9 °F 54% 29.35 in 10.0 mi WNW 18.4 mph 35.7 mph N/A   Overcast
5:50 AM 50.2 °F - 34.7 °F 55% 29.37 in 10.0 mi West 11.5 mph 32.2 mph N/A   Overcast
6:10 AM 49.5 °F - 34.9 °F 57% 29.40 in 10.0 mi WNW 15.0 mph 24.2 mph N/A   Mostly Cloudy
6:35 AM 48.2 °F - 33.4 °F 57% 29.43 in 10.0 mi WNW 18.4 mph 28.8 mph N/A   Scattered Clouds
6:55 AM 47.5 °F - 32.9 °F 57% 29.46 in 10.0 mi West 13.8 mph 26.5 mph N/A   Clear
7:35 AM 45.5 °F 37.6 °F 30.2 °F 55% 29.51 in 10.0 mi West 20.7 mph 33.4 mph N/A   Scattered Clouds
8:00 AM 44.8 °F 38.0 °F 28.4 °F 53% 29.54 in 10.0 mi WNW 15.0 mph 33.4 mph N/A   Scattered Clouds
8:20 AM 44.6 °F 36.9 °F 27.3 °F 51% 29.55 in 10.0 mi West 18.4 mph 28.8 mph N/A   Clear
8:40 AM 44.8 °F 38.7 °F 27.1 °F 50% 29.56 in 10.0 mi WNW 12.7 mph 23.0 mph N/A   Clear
9:00 AM 45.5 °F 38.6 °F 27.3 °F 49% 29.58 in 10.0 mi West 16.1 mph 21.9 mph N/A   Clear
9:25 AM 46.4 °F 39.0 °F 25.2 °F 43% 29.59 in 10.0 mi West 19.6 mph 28.8 mph N/A   Scattered Clouds
9:45 AM 45.9 °F 39.1 °F 24.1 °F 42% 29.60 in 10.0 mi West 16.1 mph 28.8 mph N/A   Scattered Clouds
10:05 AM 45.9 °F 38.3 °F 25.2 °F 44% 29.62 in 10.0 mi West 19.6 mph 25.3 mph N/A   Scattered Clouds
10:25 AM 46.6 °F - 24.3 °F 42% 29.63 in 10.0 mi West 12.7 mph 26.5 mph N/A   Mostly Cloudy
10:50 AM 45.3 °F 37.6 °F 21.9 °F 40% 29.65 in 10.0 mi West 19.6 mph 32.2 mph N/A   Scattered Clouds
11:10 AM 46.8 °F - 21.9 °F 37% 29.65 in 10.0 mi West 17.3 mph 29.9 mph N/A   Scattered Clouds
11:30 AM 46.9 °F - 22.1 °F 38% 29.65 in 10.0 mi WSW 20.7 mph 28.8 mph N/A   Scattered Clouds
11:50 AM 47.8 °F - 22.3 °F 37% 29.66 in 10.0 mi WSW 20.7 mph 31.1 mph N/A   Scattered Clouds
12:15 PM 48.9 °F - 22.6 °F 36% 29.65 in 10.0 mi West 15.0 mph 28.8 mph N/A   Scattered Clouds
12:35 PM 49.1 °F - 23.7 °F 37% 29.66 in 10.0 mi West 21.9 mph 31.1 mph N/A   Scattered Clouds
12:55 PM 47.3 °F - 22.8 °F 38% 29.67 in 10.0 mi WNW 17.3 mph 27.6 mph N/A   Scattered Clouds
1:15 PM 48.2 °F - 21.4 °F 35% 29.68 in 10.0 mi West 10.4 mph 24.2 mph N/A   Mostly Cloudy
1:40 PM 47.5 °F - 19.6 °F 33% 29.68 in 10.0 mi West 16.1 mph 28.8 mph N/A   Scattered Clouds
2:00 PM 45.0 °F 37.6 °F 18.3 °F 35% 29.69 in 10.0 mi West 17.3 mph 31.1 mph N/A   Scattered Clouds
2:20 PM 44.8 °F 37.7 °F 17.6 °F 34% 29.70 in 10.0 mi West 16.1 mph 28.8 mph N/A   Mostly Cloudy
2:40 PM 46.4 °F 41.1 °F 19.0 °F 34% 29.71 in 10.0 mi West 11.5 mph 25.3 mph N/A   Mostly Cloudy
3:05 PM 44.8 °F 37.4 °F 20.7 °F 38% 29.73 in 10.0 mi WNW 17.3 mph 27.6 mph N/A   Clear
3:25 PM 43.0 °F 36.8 °F 20.8 °F 41% 29.74 in 10.0 mi West 11.5 mph 27.6 mph N/A   Scattered Clouds
3:45 PM 42.1 °F 34.2 °F 18.3 °F 39% 29.75 in 10.0 mi West 16.1 mph 25.3 mph N/A   Mostly Cloudy
4:05 PM 43.5 °F 37.1 °F 19.2 °F 38% 29.77 in 10.0 mi West 12.7 mph 21.9 mph N/A   Overcast
4:30 PM 42.1 °F 34.5 °F 17.2 °F 37% 29.79 in 10.0 mi West 15.0 mph 29.9 mph N/A   Scattered Clouds
4:50 PM 41.0 °F 33.9 °F 16.5 °F 37% 29.80 in 10.0 mi West 12.7 mph 31.1 mph N/A   Scattered Clouds
5:10 PM 39.9 °F 32.9 °F 17.6 °F 41% 29.81 in 10.0 mi West 11.5 mph 19.6 mph N/A   Clear
5:30 PM 39.4 °F 32.3 °F 18.3 °F 43% 29.81 in 10.0 mi WSW 11.5 mph - N/A   Clear
5:55 PM 39.2 °F 35.0 °F 18.5 °F 43% 29.83 in 10.0 mi WSW 5.8 mph 16.1 mph N/A   Scattered Clouds
6:15 PM 39.2 °F 31.6 °F 18.5 °F 43% 29.84 in 10.0 mi West 12.7 mph 19.6 mph N/A   Scattered Clouds
6:35 PM 38.8 °F 31.6 °F 18.1 °F 43% 29.86 in 10.0 mi West 11.5 mph 20.7 mph N/A   Scattered Clouds
6:55 PM 38.3 °F 29.7 °F 16.0 °F 40% 29.88 in 10.0 mi WNW 15.0 mph 26.5 mph N/A   Clear
7:20 PM 37.0 °F 29.3 °F 15.3 °F 41% 29.89 in 10.0 mi WNW 11.5 mph 26.5 mph N/A   Clear
7:40 PM 36.5 °F 28.7 °F 14.5 °F 41% 29.91 in 10.0 mi WNW 11.5 mph 21.9 mph N/A   Clear
8:00 PM 35.8 °F 27.8 °F 17.1 °F 47% 29.92 in 10.0 mi WNW 11.5 mph 19.6 mph N/A   Clear
8:20 PM 35.2 °F 29.5 °F 14.7 °F 43% 29.91 in 10.0 mi NW 6.9 mph - N/A   Clear
8:45 PM 34.5 °F 27.3 °F 14.7 °F 44% 29.91 in 10.0 mi WNW 9.2 mph - N/A   Clear
9:00 PM 34.0 °F 28.0 °F 14.5 °F 45% 29.91 in 10.0 mi WNW 6.9 mph - N/A   Clear
9:25 PM 33.4 °F 29.1 °F 14.9 °F 47% 29.91 in 10.0 mi WNW 4.6 mph - N/A   Clear
9:45 PM 33.4 °F 29.1 °F 14.7 °F 46% 29.91 in 10.0 mi WNW 4.6 mph - N/A   Clear
10:05 PM 33.3 °F 28.9 °F 15.1 °F 47% 29.91 in 10.0 mi West 4.6 mph - N/A   Clear
10:30 PM 33.1 °F 28.7 °F 14.9 °F 47% 29.92 in 10.0 mi WNW 4.6 mph - N/A   Clear
10:50 PM 33.3 °F - 15.4 °F 48% 29.92 in 10.0 mi Calm Calm - N/A   Clear
11:10 PM 33.4 °F - 15.6 °F 48% 29.92 in 10.0 mi Calm Calm - N/A   Scattered Clouds
11:35 PM 33.4 °F - 16.0 °F 49% 29.93 in 10.0 mi Calm Calm - N/A   Scattered Clouds
11:55 PM 33.8 °F - 15.6 °F 47% 29.92 in 10.0 mi Calm Calm - N/A   Scattered Clouds